Regional Weather Roundup
Issued by NWS

Home | Current Version | Previous Version | Text Only | Print | Product List | Glossary On
Versions: 1 2 3 4 5 6 7 8 9 10 11 12 13 14 15 16 17 18 19 20 21 22 23 24 25 26 27
000
ASUS45 KBOU 161106
RWRCO

WEATHER ROUNDUP FOR COLORADO
NATIONAL WEATHER SERVICE DENVER/BOULDER CO
500 AM MDT WED APR 16 2014

NOTE: "FAIR" INDICATES FEW OR NO CLOUDS BELOW 12000 FEET WITH NO
SIGNIFICANT WEATHER AND/OR OBSTRUCTIONS TO VISIBILITY.

COZ001>005-013-030-031-161200-
...NORTHWEST COLORADO...

CITY           SKY/WX    TMP DP  RH WIND       PRES   REMARKS
CRAIG          CLOUDY    33  18  53 SW9       29.94R WCI  25
HAYDEN         CLOUDY    34  16  47 W8        29.94R WCI  27
MEEKER         CLOUDY    40  16  37 NE3       29.93R
MOUNT WERNER   NOT AVBL
STEAMBOAT SPGS CLOUDY    33  16  51 W6        29.90R WCI  27
WALDEN         MOCLDY    27  14  59 SW7       29.88R WCI  19
$$

COZ006>008-011-161200-
...WEST CENTRAL VALLEYS...

CITY           SKY/WX    TMP DP  RH WIND       PRES   REMARKS
GRAND JUNCTION PTCLDY    36  29  75 CALM      29.84R
MONTROSE       PTCLDY    39  27  62 SE6       29.87S
EAGLE          CLOUDY    43  25  49 NE6       29.89R
RIFLE          MOCLDY    46  15  28 NW14G23   29.88R
DELTA          PTCLDY    38  28  66 NE6       29.85R
NUCLA            N/A     36  19  51 SE9       29.91S
$$

COZ017>023-064>068-161200-
...SOUTHWEST COLORADO...

CITY           SKY/WX    TMP DP  RH WIND       PRES   REMARKS
DURANGO        CLEAR     24   4  42 CALM      29.90S
CORTEZ         CLEAR     30  15  53 E5        29.88S WCI  25
PAGOSA SPRINGS CLEAR     28   4  36 CALM      29.93S
TELLURIDE      CLOUDY    41   9  26 CALM      29.95S
WOLF CREEK PAS PTCLDY    23  -2  33 SW30G36   29.99S WCI   5
$$

COZ009-010-012-014-032>034-037-058>063-161200-
...CENTRAL COLORADO...

CITY           SKY/WX    TMP DP  RH WIND       PRES   REMARKS
ASPEN          CLOUDY    41  16  36 CALM      29.86S
BUENA VISTA    MOCLDY    42  12  29 W16G31    29.83S
COPPER MTN     SNOW      25  19  80 W29G37    29.90S VSB 1/4 WCI   8
BERTHOUD PASS  HVY SNOW  12   3  67 NW31G40   29.84S VSB 1/4 WCI -10
COTTONWOOD PAS MOCLDY    37  10  32 W23G43    29.86R
GUNNISON       PTCLDY    30  16  55 NE5       29.91R WCI  25
KREMMLING      CLOUDY    34  18  51 CALM      29.91R
LEADVILLE      FLURRIES  28  19  69 W7        29.90R WCI  21
MONARCH PASS   CLOUDY    27   7  43 W32G40    30.04F WCI  10
SALIDA         MOCLDY    42   8  24 CALM      29.88S
SUNLIGHT       CLOUDY    28  21  74 SW5       29.95S WCI  23
WILKERSON PASS PTCLDY    27  14  59 W17G26    29.89F WCI  14
$$

COZ069>075-161200-
...SAN LUIS VALLEY/SANGRE DE CRISTO MOUNTAINS...

CITY           SKY/WX    TMP DP  RH WIND       PRES   REMARKS
ALAMOSA        PTCLDY    32   9  38 SW8       29.86S WCI  25
LA VETA PASS   PTCLDY    30   3  31 SW9G25    29.88R WCI  22
SAGUACHE       CLEAR     28   9  43 NW9       29.88S WCI  20
$$

COZ035-036-038>040-161200-
...NORTHERN COLORADO FRONT RANGE...

CITY           SKY/WX    TMP DP  RH WIND       PRES   REMARKS
DENVER INTL AP PTCLDY    39  29  67 NW9       29.76R
DMNS CITY PARK   N/A     47  23  38 NW16G31   29.76R
AURORA         NOT AVBL
FRONT RANGE AP NOT AVBL
ERIE MUNI ARPT MOCLDY    46  25  43 W10       29.78R
BOULDER MUN AP MOCLDY    46  21  36 W8        29.77R
CENTENNIAL     PTCLDY    38  28  67 SE6       29.76R
BROOMFIELD     MOCLDY    43  28  56 W22G31    29.79R
FORT COLLINS   PTCLDY    41  27  56 NE9       29.79S
LONGMONT       PTCLDY    45  26  46 W5        29.79R
$$

COZ041-046-047-076>085-087-088-161200-
...PIKES PEAK/PALMER DIVIDE AND SOUTHERN FOOTHILLS...

CITY           SKY/WX    TMP DP  RH WIND       PRES   REMARKS
COLO. SPRINGS  MOCLDY    50  12  21 NW12      29.75R
A. F. ACADEMY  PTCLDY    37  15  42 N9        29.76R
ELLICOTT       NOT AVBL
FALCON         PTCLDY    38  13  35 NW6       29.78R
FORT CARSON    PTCLDY    43  13  29 N6        29.73R
LIMON          PTCLDY    36  29  75 MISG      29.76R
MONUMENT HILL  CLEAR     32  27  80 NE6       29.78R WCI  26
TRINIDAD       PTCLDY    41  14  33 SW14      29.76R
$$

COZ042>045-048>051-090-091-161200-
...NORTHEAST COLORADO...

CITY           SKY/WX    TMP DP  RH WIND       PRES   REMARKS
GREELEY ARPT   MOCLDY    43  25  49 N21       29.77R
AKRON          CLOUDY    41  30  65 N20       29.74R
BURLINGTON     PTCLDY    43  31  62 NW14      29.71R
WRAY           MOCLDY    44  33  67 W18       29.68R
STERLING       PTCLDY    45  36  70 N28G36    29.72R
HOLYOKE        PTCLDY    48  34  57 NW18G28   29.66R
FORT MORGAN    PTCLDY    43  28  56 NW24G30   29.74R
$$

COZ086-089-092>099-161200-
...SOUTHEAST COLORADO...

CITY           SKY/WX    TMP DP  RH WIND       PRES   REMARKS
PUEBLO         MOCLDY    37  27  67 W3        29.70R
LA JUNTA       PTCLDY    47  21  35 SW15      29.68R
LAMAR          PTCLDY    41  26  55 W3        29.66R
SPRINGFIELD    NOT AVBL
$$



USA.gov is the U.S. government's official web portal to all federal, state and local government web resources and services.